Weather History for Bratislava, Slovakia

Change the Weather History Date:

Monday, April 8, 2013

  Actual Average Record
Temperature  
Mean Temperature 41 °F -  
Max Temperature 50 °F 62 °F 75 °F (2009)
Min Temperature 32 °F 43 °F 28 °F (2002)
Degree Days  
Heating Degree Days 24    
Moisture  
Dew Point 30 °F    
Average Humidity 60    
Maximum Humidity 81    
Minimum Humidity 37    
Precipitation  
Precipitation 0.00 in - - ()
Sea Level Pressure  
Sea Level Pressure 29.87 in    
Wind  
Wind Speed 7 mph ()    
Max Wind Speed 13 mph    
Max Gust Speed -    
Visibility 9.1 miles    
Events      
Averages and records for this station are not official NWS values.
T = Trace of Precipitation, MM = Missing Value Source: Averaged Metar Reports

Daily Weather History Graph

Daily Weather History Graph

Search for Another Location

Airport:

Trip Planner

Search our weather history database for the weather conditions in past years. The results will help you decide how hot, cold, wet, or windy it might be!

Date:

Astronomy

Apr. 08, 2013 Rise Set
Actual Time 6:15 AM CEST 7:31 PM CEST
Civil Twilight 5:43 AM CEST 8:03 PM CEST
Nautical Twilight 5:04 AM CEST 8:42 PM CEST
Astronomical Twilight 4:23 AM CEST 9:24 PM CEST
Moon 5:04 AM CEST (4/8) 5:41 PM CEST (4/8)
Length of Visible Light 14h 20m
Length of Day
13h 16m
Waning Crescent, 4% of the Moon is Illuminated
Apr 8
Waning Crescent
Apr 10
New
Apr 18
First Quarter
Apr 25
Full
May 2
Last Quarter

Hourly Weather History & Observations

Time (CEST) Temp. Windchill Dew Point Humidity Pressure Visibility Wind Dir Wind Speed Gust Speed Precip Events Conditions
12:00 AM 36 °F - 27 °F 59% 30.03 in 12 mi NNW 13.4 mph - -   Clear
12:00 AM 37.4 °F 29.3 °F 26.6 °F 65% 30.01 in - NNW 12.7 mph - N/A   Clear
12:30 AM 37.4 °F 30.8 °F 26.6 °F 65% 29.98 in - NNW 9.2 mph - N/A   Clear
1:00 AM 36 °F - 28 °F 62% 30.01 in 12 mi NNW 11.2 mph - -  
1:00 AM 35.6 °F 28.0 °F 26.6 °F 70% 29.98 in - NNW 10.4 mph - N/A   Clear
1:30 AM 37.4 °F 31.4 °F 28.4 °F 70% 29.98 in - North 8.1 mph - N/A   Clear
2:00 AM 36 °F - 28 °F 61% 29.99 in 12 mi NNE 4.5 mph - -  
2:00 AM 35.6 °F 31.7 °F 28.4 °F 75% 29.95 in - NNE 4.6 mph - N/A   Clear
2:30 AM 33.8 °F 28.6 °F 26.6 °F 75% 29.95 in - NE 5.8 mph - N/A   Clear
3:00 AM 35 °F - 27 °F 61% 29.98 in 12 mi North 4.5 mph - -  
3:00 AM 33.8 °F 28.6 °F 26.6 °F 75% 29.95 in - North 5.8 mph - N/A   Clear
3:30 AM 35.6 °F 29.9 °F 26.6 °F 70% 29.95 in - North 6.9 mph - N/A   Clear
4:00 AM 35 °F - 26 °F 58% 29.97 in 12 mi North 6.7 mph - -  
4:00 AM 35.6 °F 29.9 °F 24.8 °F 65% 29.95 in - North 6.9 mph - N/A   Clear
4:30 AM 35.6 °F 29.9 °F 24.8 °F 65% 29.95 in - NNW 6.9 mph - N/A   Clear
5:00 AM 35 °F - 25 °F 56% 29.96 in 12 mi NNW 4.5 mph - -  
5:00 AM 35.6 °F 30.7 °F 24.8 °F 65% 29.92 in - NNW 5.8 mph - N/A   Clear
5:30 AM 32.0 °F 26.4 °F 24.8 °F 75% 29.92 in - NW 5.8 mph - N/A   Clear
6:00 AM 34 °F - 26 °F 61% 29.96 in 11 mi NW 6.7 mph - -   Scattered Clouds
6:00 AM 33.8 °F 28.6 °F 26.6 °F 75% 29.92 in - NW 5.8 mph - N/A   Clear
6:30 AM 33.8 °F 28.6 °F 24.8 °F 70% 29.92 in - North 5.8 mph - N/A   Clear
7:00 AM 34 °F - 25 °F 60% 29.94 in 11 mi North 2.2 mph - -   Scattered Clouds
7:00 AM 33.8 °F - 24.8 °F 70% 29.89 in - North 2.3 mph - N/A   Clear
7:30 AM 35.6 °F - 26.6 °F 70% 29.89 in - Variable 1.2 mph - N/A   Clear
8:00 AM 39 °F - 28 °F 53% 29.94 in 12 mi North 4.5 mph - -  
8:00 AM 39.2 °F - 28.4 °F 65% 29.89 in - Variable 1.2 mph - N/A   Clear
8:30 AM 39.2 °F 33.6 °F 26.6 °F 61% 29.89 in - ENE 8.1 mph - N/A   Clear
9:00 AM 40 °F - 27 °F 48% 29.93 in 12 mi NE 8.9 mph - -   Scattered Clouds
9:00 AM 39.2 °F 33.0 °F 26.6 °F 61% 29.89 in - ENE 9.2 mph - N/A   Clear
9:30 AM 41.0 °F 35.8 °F 26.6 °F 57% 29.89 in - East 8.1 mph - N/A   Clear
10:00 AM 42 °F - 27 °F 43% 29.92 in 16 mi East 6.7 mph - -   Scattered Clouds
10:00 AM 42.8 °F 38.6 °F 24.8 °F 49% 29.89 in - East 6.9 mph - N/A   Clear
10:30 AM 42.8 °F 39.3 °F 26.6 °F 53% 29.89 in - ESE 5.8 mph - N/A   Clear
11:00 AM 44 °F - 28 °F 40% 29.91 in 12 mi ESE 4.5 mph - -   Clear
11:00 AM 44.6 °F 42.2 °F 28.4 °F 53% 29.89 in - SE 4.6 mph - N/A   Clear
11:30 AM 46.4 °F 44.3 °F 32.0 °F 57% 29.86 in 6.2 mi ESE 4.6 mph - N/A   Partly Cloudy
12:00 PM 46 °F - 31 °F 44% 29.90 in 12 mi SE 6.7 mph - -   Partly Cloudy
12:00 PM 46.4 °F 43.5 °F 30.2 °F 53% 29.86 in 6.2 mi ESE 5.8 mph - N/A   Scattered Clouds
12:30 PM 46.4 °F 43.5 °F 32.0 °F 57% 29.86 in 6.2 mi SE 5.8 mph - N/A   Scattered Clouds
1:00 PM 47 °F - 31 °F 43% 29.88 in 12 mi South 6.7 mph - -   Partly Cloudy
1:00 PM 48.2 °F - 32.0 °F 54% 29.86 in 6.2 mi South 6.9 mph - N/A   Scattered Clouds
1:30 PM 48.2 °F - 30.2 °F 50% 29.86 in 6.2 mi SE 6.9 mph - N/A   Scattered Clouds
2:00 PM 48 °F - 31 °F 39% 29.87 in 12 mi South 6.7 mph - -   Partly Cloudy
2:00 PM 48.2 °F - 30.2 °F 50% 29.86 in 6.2 mi South 8.1 mph - N/A   Scattered Clouds
2:30 PM 50.0 °F - 32.0 °F 50% 29.83 in 6.2 mi South 6.9 mph - N/A   Scattered Clouds
3:00 PM 49 °F - 31 °F 37% 29.86 in 12 mi SSE 8.9 mph - -   Partly Cloudy
3:00 PM 48.2 °F - 30.2 °F 50% 29.83 in 6.2 mi South 8.1 mph - N/A   Scattered Clouds
3:30 PM 50.0 °F - 32.0 °F 50% 29.83 in 6.2 mi SSE 8.1 mph - N/A   Scattered Clouds
4:00 PM 49 °F - 31 °F 37% 29.83 in 12 mi SSE 11.2 mph - -   Scattered Clouds
4:00 PM 50.0 °F - 32.0 °F 50% 29.80 in 6.2 mi South 10.4 mph - N/A   Partly Cloudy
4:30 PM 50.0 °F - 32.0 °F 50% 29.80 in 6.2 mi South 9.2 mph - N/A   Partly Cloudy
5:00 PM 49 °F - 31 °F 37% 29.81 in 12 mi SE 8.9 mph - -   Scattered Clouds
5:00 PM 48.2 °F - 32.0 °F 54% 29.80 in 6.2 mi SSE 11.5 mph - N/A   Partly Cloudy
5:30 PM 48.2 °F - 32.0 °F 54% 29.77 in 6.2 mi SSE 8.1 mph - N/A   Partly Cloudy
6:00 PM 49 °F - 32 °F 40% 29.79 in 11 mi SE 11.2 mph - -   Scattered Clouds
6:00 PM 48.2 °F - 32.0 °F 54% 29.77 in 6.2 mi SSE 10.4 mph - N/A   Partly Cloudy
6:30 PM 48.2 °F - 33.8 °F 58% 29.77 in 6.2 mi SE 10.4 mph - N/A   Partly Cloudy
7:00 PM 47 °F - 33 °F 48% 29.78 in 11 mi SE 11.2 mph - -   Clear
7:00 PM 46.4 °F 41.5 °F 33.8 °F 62% 29.77 in - SE 10.4 mph - N/A   Clear
7:30 PM 44.6 °F 39.7 °F 33.8 °F 66% 29.77 in - SE 9.2 mph - N/A   Clear
8:00 PM 44 °F - 35 °F 60% 29.80 in 9 mi SE 6.7 mph - -   Partly Cloudy
8:00 PM 44.6 °F 40.2 °F 33.8 °F 66% 29.77 in 6.2 mi SE 8.1 mph - N/A   Scattered Clouds
8:30 PM 44.6 °F 39.7 °F 35.6 °F 71% 29.77 in 6.2 mi SE 9.2 mph - N/A   Mostly Cloudy
9:00 PM 44 °F - 35 °F 63% 29.81 in 9 mi SE 11.2 mph - -   Mostly Cloudy
9:00 PM 44.6 °F 39.2 °F 35.6 °F 71% 29.77 in 6.2 mi SE 10.4 mph - N/A   Mostly Cloudy
9:30 PM 42.8 °F 37.5 °F 35.6 °F 76% 29.77 in 6.2 mi SE 9.2 mph - N/A   Partly Cloudy
10:00 PM 41 °F - 35 °F 71% 29.81 in 9 mi SE 8.9 mph - -   Partly Cloudy
10:00 PM 41.0 °F 35.2 °F 35.6 °F 81% 29.77 in - SE 9.2 mph - N/A   Clear
10:30 PM 41.0 °F 35.8 °F 35.6 °F 81% 29.77 in - SE 8.1 mph - N/A   Clear
11:00 PM 42 °F - 35 °F 69% 29.79 in 6 mi SE 11.2 mph - -   Mostly Cloudy
11:00 PM 42.8 °F 37.0 °F 35.6 °F 76% 29.77 in - SSE 10.4 mph - N/A   Clear
11:30 PM 42.8 °F 38.0 °F 35.6 °F 76% 29.77 in - SSE 8.1 mph - N/A   Clear